Вернуться в каталог

PIAST-S2

АктивенНаукаSSO
NORAD 66757·PAYLOAD·🇵🇱 Poland

Запущен Nov 28, 2025 с Vandenberg Space Force Base

Loading…

Ближайшие Пролёты (ближайшие 24 часа)

TLE

СвежийSource: Space-Track

Эпоха: Sep 14, 2026, 03:11 UTC

1 66757U 25276CV  26257.13332827  .00004608  00000-0  20902-3 0  9998
2 66757  97.4140 329.5610 0002194  46.5410 313.6008 15.21308072 43951

Отслеживайте PIAST-S2 в реальном времени с AllMySat

Download on the App Store